#timestamp,LO_Frequency,Hit,StdDev 
1619254815.1,286046999.9,N
1619254816.0,286046999.9,N
1619254835.8,286047000.0,N
1619254855.6,286046998.1,Y
1619254875.5,286047002.7,P
1619254895.3,286047004.7,P
1619254915.2,286047005.2,N
1619254935.9,286047001.7,N
1619254955.7,286047000.3,N
1619254975.6,286047000.2,N
1619254995.4,286047000.3,N
1619255015.2,286047000.2,N
1619255035.1,286046998.8,N
1619255036.0,286046998.8,N
1619255055.8,286046998.6,N
1619255075.7,286046998.1,N
1619255095.5,286046998.1,N
1619255115.3,286046997.7,N
1619255135.2,286046999.1,N
1619255155.0,286046996.5,N
1619255155.9,286046996.5,N
1619255175.7,286046999.5,N
1619255195.6,286047001.0,N
1619255215.4,286046999.5,N
1619255235.3,286046999.4,N
1619255255.1,286046999.6,N
1619255256.0,286046999.6,N
1619255275.8,286047000.6,N
1619255295.7,286046999.8,N
1619255315.5,286046998.1,N
1619255335.3,286047002.8,N
1619255355.2,286047000.6,N
1619255375.0,286046997.0,N
1619255375.9,286046997.0,N
1619255395.8,286046998.9,N
1619255415.6,286047000.7,N
1619255435.4,286047000.0,N
1619255455.3,286047001.8,N
1619255475.1,286047000.3,N
1619255495.8,286047000.6,N
1619255515.7,286046999.1,N
1619255535.5,286046999.1,N
1619255555.4,286046997.6,N
1619255575.2,286046997.4,N
1619255595.0,286046999.5,N
1619255595.9,286046999.5,N
1619255615.8,286046998.9,N
1619255635.6,286046998.2,N
1619255655.4,286047002.3,N
1619255675.3,286047001.5,N
1619255695.1,286047002.5,N
1619255715.9,286046999.8,N
1619255735.7,286047001.2,N
1619255755.5,286046998.2,N
1619255775.4,286047000.6,N
1619255795.2,286047002.3,N
1619255815.0,286047002.2,N
1619255816.0,286047002.2,N
1619255835.8,286047004.3,N
1619255855.6,286047003.7,N
1619255875.5,286047001.9,N
1619255895.3,286047001.6,N
1619255915.1,286047004.2,N
1619255935.9,286047004.0,N
1619255955.7,286047002.9,N
1619255975.6,286047001.7,N
1619255995.4,286047003.9,N
1619256015.2,286047004.9,N
1619256035.1,286047005.8,N
1619256036.0,286047005.8,N
1619256055.8,286047003.8,N
1619256075.7,286047005.5,N
1619256095.5,286047007.6,Y
1619256115.3,286047001.1,P
1619256135.2,286047000.3,N
1619256155.0,286047002.4,P
1619256155.9,286047002.4,N
1619256175.8,286046998.5,N
1619256195.6,286046999.4,N
1619256215.4,286047000.1,N
1619256235.3,286047000.6,N
1619256255.1,286047002.1,N
1619256275.9,286047003.8,N
1619256295.7,286047000.2,N
1619256315.5,286046999.2,N
1619256335.4,286046997.3,N
1619256355.2,286046994.9,Y
1619256375.0,286046996.2,P
1619256375.9,286046996.2,N
1619256395.8,286046997.7,N
1619256415.6,286046996.5,N
1619256435.5,286046997.9,N
1619256455.3,286046993.8,Y
1619256475.1,286046995.3,P
1619256495.9,286046997.2,N
1619256515.7,286046999.1,N
1619256535.6,286046998.6,N
1619256555.4,286046998.1,N
1619256575.2,286046998.9,N
1619256595.1,286047011.9,Y
1619256596.0,286046996.7,P
1619256615.8,286046998.1,P
1619256635.6,286046998.9,N
1619256655.5,286046998.1,N
1619256675.3,286046999.5,N
1619256695.2,286046999.5,N
1619256715.9,286046998.7,N
1619256735.7,286047000.4,N
1619256755.6,286046998.4,N
1619256775.4,286047000.2,N
1619256795.2,286047004.4,Y
1619256815.1,286047004.1,P
1619256816.0,286047004.1,N
1619256835.8,286047001.5,N
1619256855.7,286046999.8,N
1619256875.5,286047001.7,N
1619256895.3,286047005.6,N
1619256915.2,286047005.7,N
1619256935.0,286047005.6,N
1619256935.9,286047005.6,N
1619256955.8,286047002.9,N
1619256975.6,286047003.2,N
1619256995.4,286047002.9,N
1619257015.3,286047005.6,N
1619257035.1,286047007.4,Y
1619257055.9,286047002.2,P
1619257075.7,286047002.8,P
1619257095.5,286047000.5,N
1619257115.4,286046998.4,N
1619257135.2,286046999.2,N
1619257155.1,286046998.6,N
1619257156.0,286046998.6,N
1619257175.8,286047002.7,N
1619257195.6,286047000.5,N
1619257215.5,286046999.0,N
1619257235.3,286046998.7,N
1619257255.1,286047000.0,N
1619257275.9,286047001.2,N
1619257295.7,286047000.3,N
1619257315.6,286047002.1,N
1619257335.4,286047000.6,N
1619257355.2,286047001.5,N
1619257375.1,286047003.9,N
1619257376.0,286047003.9,N
1619257395.8,286046999.7,N
1619257415.6,286046996.5,N
1619257435.5,286046996.7,N
1619257455.3,286046995.0,N
1619257475.2,286046995.3,N
1619257495.9,286046997.5,N
1619257515.7,286046997.7,N
1619257535.6,286046995.2,N
1619257555.4,286046995.0,N
1619257575.2,286046999.5,N
1619257595.1,286046998.4,N
1619257596.0,286046998.4,N
1619257615.8,286046997.2,N
1619257635.7,286046996.9,N
1619257655.5,286046998.7,N
1619257675.3,286047001.2,N
1619257695.2,286047000.2,N
1619257715.0,286047011.9,Y
1619257715.9,286047002.8,P
1619257735.8,286047002.2,N
1619257755.6,286047002.6,N
1619257775.4,286047004.4,N
1619257795.3,286047002.6,N
1619257815.1,286047001.7,N
1619257835.8,286047002.9,N
1619257855.7,286047004.4,Y
1619257875.5,286046999.8,P
1619257895.4,286047001.1,N
1619257915.2,286047000.3,N
1619257935.0,286047004.0,Y
1619257936.0,286047004.0,P
1619257955.8,286047000.8,N
1619257975.6,286046999.3,N
1619257995.5,286046999.3,N
1619258015.3,286047002.8,N
1619258035.1,286046998.1,N
1619258055.9,286046996.5,N
1619258075.7,286046998.1,N
1619258095.6,286047000.9,N
1619258115.4,286046996.8,N
1619258135.2,286046996.6,N
1619258155.1,286046998.3,N
1619258156.0,286046998.3,N
1619258175.8,286046996.8,N
1619258195.6,286046999.0,N
1619258215.5,286046999.9,N
1619258235.3,286046998.5,N
1619258255.2,286046998.8,N
1619258275.9,286046997.7,N
1619258295.7,286046996.3,N
1619258315.6,286046997.2,N
1619258335.4,286046998.6,N
1619258355.2,286046998.7,N
1619258375.1,286046997.4,N
1619258376.0,286046997.4,N
1619258395.8,286046996.3,N
